When you browse on this site, cookies collect data to enhance your experience and personalize the content and advertising you see.
Visit our Privacy Policy to learn more. By continuing to use the site, you agree to this use of cookies and data.
  • In Switzerland
  • List of Countries
  • For 7 days
  • Water Temperature
  • Satellite Maps
  • Weather Map
  • Weather Widgets
  • user-avatar
    Login

    Hourly Weather Kalgoorlie

    Today, 23 May, Thursday

    Time Temperature Precipitation Wind Pressure Humidity
    00:00 +19°C° 0 mm 3 mps 732 mmHg 34%
    01:00 +18°C° 0 mm 3 mps 732 mmHg 39%
    02:00 +18°C° 0 mm 3 mps 732 mmHg 43%
    03:00 +17°C° 0 mm 3 mps 732 mmHg 49%
    04:00 +16°C° 0 mm 3 mps 732 mmHg 54%
    05:00 +16°C° 0 mm 3 mps 733 mmHg 59%
    06:00 +15°C° 0 mm 4 mps 733 mmHg 61%
    07:00 +15°C° 0 mm 4 mps 734 mmHg 62%
    08:00 +15°C° 0 mm 4 mps 734 mmHg 64%
    09:00 +18°C° 0 mm 4 mps 734 mmHg 58%
    10:00 +20°C° 0 mm 4 mps 734 mmHg 52%
    11:00 +22°C° 0 mm 4 mps 734 mmHg 45%
    12:00 +22°C° 0 mm 5 mps 734 mmHg 42%
    13:00 +23°C° 0 mm 5 mps 734 mmHg 38%
    14:00 +25°C° 0 mm 5 mps 734 mmHg 35%
    15:00 +23°C° 0 mm 5 mps 734 mmHg 36%
    16:00 +22°C° 0 mm 5 mps 734 mmHg 38%
    17:00 +21°C° 0 mm 4 mps 734 mmHg 39%
    18:00 +20°C° 0 mm 4 mps 734 mmHg 41%
    19:00 +19°C° 0 mm 3 mps 734 mmHg 43%
    20:00 +18°C° 0 mm 3 mps 735 mmHg 46%
    21:00 +17°C° 0 mm 3 mps 735 mmHg 47%
    22:00 +17°C° 0 mm 3 mps 735 mmHg 48%
    23:00 +16°C° 0 mm 2 mps 735 mmHg 49%

    Tomorrow, 24 May, Friday

    Time Temperature Precipitation Wind Pressure Humidity
    00:00 +16°C° 0 mm 2 mps 735 mmHg 50%
    01:00 +15°C° 0 mm 2 mps 735 mmHg 52%
    02:00 +15°C° 0 mm 2 mps 735 mmHg 53%
    03:00 +14°C° 0 mm 2 mps 734 mmHg 54%
    04:00 +14°C° 0 mm 2 mps 734 mmHg 55%
    05:00 +14°C° 0 mm 2 mps 734 mmHg 56%
    06:00 +14°C° 0 mm 2 mps 735 mmHg 56%
    07:00 +14°C° 0 mm 2 mps 735 mmHg 55%
    08:00 +15°C° 0 mm 2 mps 735 mmHg 55%
    09:00 +16°C° 0 mm 2 mps 735 mmHg 49%
    10:00 +18°C° 0 mm 2 mps 735 mmHg 44%
    11:00 +19°C° 0 mm 2 mps 735 mmHg 39%
    12:00 +21°C° 0 mm 1 mps 735 mmHg 36%
    13:00 +22°C° 0 mm 1 mps 734 mmHg 32%
    14:00 +22°C° 0 mm 1 mps 734 mmHg 29%
    15:00 +20°C° 0 mm 0 mps 734 mmHg 32%
    16:00 +19°C° 0 mm 0 mps 734 mmHg 35%
    17:00 +18°C° 0 mm 0 mps 734 mmHg 38%
    18:00 +20°C° 0 mm 1 mps 734 mmHg 38%
    19:00 +19°C° 0 mm 1 mps 734 mmHg 39%
    20:00 +18°C° 0 mm 1 mps 735 mmHg 40%
    21:00 +18°C° 0 mm 1 mps 735 mmHg 41%
    22:00 +16°C° 0 mm 2 mps 735 mmHg 42%
    23:00 +16°C° 0 mm 2 mps 735 mmHg 43%

    Day after tomorrow, 25 May, Saturday

    Time Temperature Precipitation Wind Pressure Humidity
    00:00 +14°C° 0 mm 3 mps 735 mmHg 46%
    01:00 +14°C° 0 mm 3 mps 735 mmHg 50%
    02:00 +13°C° 0 mm 4 mps 735 mmHg 53%
    03:00 +13°C° 0 mm 4 mps 735 mmHg 57%
    04:00 +12°C° 0 mm 3 mps 735 mmHg 61%
    05:00 +12°C° 0 mm 3 mps 735 mmHg 64%
    06:00 +12°C° 0 mm 3 mps 735 mmHg 66%
    07:00 +12°C° 0 mm 4 mps 735 mmHg 68%
    08:00 +13°C° 0 mm 4 mps 736 mmHg 70%
    09:00 +14°C° 0 mm 4 mps 736 mmHg 63%
    10:00 +16°C° 0 mm 3 mps 736 mmHg 57%
    11:00 +18°C° 0 mm 3 mps 736 mmHg 51%
    12:00 +19°C° 0 mm 3 mps 735 mmHg 47%
    13:00 +19°C° 0 mm 2 mps 735 mmHg 44%
    14:00 +20°C° 0 mm 2 mps 734 mmHg 41%
    15:00 +19°C° 0 mm 2 mps 734 mmHg 41%
    16:00 +19°C° 0 mm 2 mps 735 mmHg 42%
    17:00 +19°C° 0 mm 2 mps 735 mmHg 43%
    18:00 +18°C° 0 mm 3 mps 735 mmHg 46%
    19:00 +17°C° 0 mm 3 mps 736 mmHg 48%
    20:00 +17°C° 0 mm 3 mps 736 mmHg 50%
    21:00 +16°C° 0 mm 3 mps 736 mmHg 54%
    22:00 +14°C° 0 mm 4 mps 736 mmHg 58%
    23:00 +14°C° 0 mm 4 mps 736 mmHg 61%

    26 May, Sunday

    Time Temperature Precipitation Wind Pressure Humidity
    00:00 +13°C° 0 mm 4 mps 736 mmHg 66%
    01:00 +13°C° 0 mm 4 mps 736 mmHg 71%
    02:00 +12°C° 0 mm 4 mps 736 mmHg 76%
    03:00 +12°C° 0 mm 4 mps 736 mmHg 80%
    04:00 +11°C° 0 mm 4 mps 736 mmHg 84%
    05:00 +11°C° 0 mm 4 mps 736 mmHg 89%
    06:00 +11°C° 0 mm 4 mps 736 mmHg 88%
    07:00 +11°C° 0 mm 4 mps 737 mmHg 87%
    08:00 +12°C° 0 mm 5 mps 737 mmHg 86%
    09:00 +13°C° 0 mm 5 mps 737 mmHg 77%
    10:00 +15°C° 0 mm 4 mps 737 mmHg 68%
    11:00 +17°C° 0 mm 4 mps 737 mmHg 59%
    12:00 +18°C° 0 mm 4 mps 736 mmHg 55%
    13:00 +19°C° 0 mm 4 mps 736 mmHg 51%
    14:00 +19°C° 0 mm 3 mps 735 mmHg 47%
    15:00 +19°C° 0 mm 3 mps 735 mmHg 48%
    16:00 +19°C° 0 mm 3 mps 736 mmHg 49%
    17:00 +18°C° 0 mm 3 mps 736 mmHg 50%
    18:00 +17°C° 0 mm 4 mps 736 mmHg 53%
    19:00 +17°C° 0 mm 4 mps 736 mmHg 56%
    20:00 +15°C° 0 mm 4 mps 737 mmHg 59%
    21:00 +14°C° 0 mm 4 mps 737 mmHg 62%
    22:00 +14°C° 0 mm 4 mps 737 mmHg 65%
    23:00 +13°C° 0 mm 4 mps 737 mmHg 68%

    27 May, Monday

    Time Temperature Precipitation Wind Pressure Humidity
    00:00 +13°C° 0 mm 4 mps 737 mmHg 69%
    01:00 +12°C° 0 mm 4 mps 737 mmHg 70%
    02:00 +12°C° 0 mm 4 mps 737 mmHg 72%
    03:00 +11°C° 0 mm 3 mps 737 mmHg 73%
    04:00 +11°C° 0 mm 3 mps 737 mmHg 74%
    05:00 +11°C° 0 mm 3 mps 737 mmHg 75%
    06:00 +11°C° 0 mm 4 mps 737 mmHg 73%
    07:00 +11°C° 0 mm 4 mps 737 mmHg 71%
    08:00 +12°C° 0 mm 4 mps 738 mmHg 69%
    09:00 +13°C° 0 mm 4 mps 737 mmHg 63%
    10:00 +15°C° 0 mm 4 mps 737 mmHg 58%
    11:00 +17°C° 0 mm 4 mps 737 mmHg 52%
    12:00 +18°C° 0 mm 3 mps 736 mmHg 49%
    13:00 +19°C° 0 mm 2 mps 736 mmHg 46%
    14:00 +19°C° 0 mm 2 mps 735 mmHg 43%
    15:00 +19°C° 0 mm 2 mps 735 mmHg 44%
    16:00 +18°C° 0 mm 2 mps 735 mmHg 45%
    17:00 +18°C° 0 mm 2 mps 735 mmHg 45%
    18:00 +17°C° 0 mm 2 mps 736 mmHg 47%
    19:00 +17°C° 0 mm 2 mps 736 mmHg 48%
    20:00 +16°C° 0 mm 3 mps 736 mmHg 50%
    21:00 +14°C° 0 mm 3 mps 736 mmHg 51%
    22:00 +14°C° 0 mm 3 mps 736 mmHg 52%
    23:00 +14°C° 0 mm 2 mps 736 mmHg 53%

    28 May, Tuesday

    Time Temperature Precipitation Wind Pressure Humidity
    00:00 +14°C° 0 mm 2 mps 736 mmHg 55%
    01:00 +13°C° 0 mm 2 mps 736 mmHg 57%
    02:00 +13°C° 0 mm 2 mps 736 mmHg 58%
    03:00 +12°C° 0 mm 1 mps 736 mmHg 60%
    04:00 +12°C° 0 mm 1 mps 736 mmHg 62%
    05:00 +11°C° 0 mm 1 mps 736 mmHg 64%
    06:00 +12°C° 0 mm 1 mps 736 mmHg 61%
    07:00 +13°C° 0 mm 1 mps 736 mmHg 58%
    08:00 +14°C° 0 mm 1 mps 737 mmHg 54%
    09:00 +15°C° 0 mm 1 mps 737 mmHg 50%
    10:00 +18°C° 0 mm 1 mps 737 mmHg 45%
    11:00 +19°C° 0 mm 1 mps 737 mmHg 41%
    12:00 +19°C° 0 mm 2 mps 736 mmHg 38%
    13:00 +19°C° 0 mm 2 mps 736 mmHg 34%
    14:00 +20°C° 0 mm 2 mps 735 mmHg 31%
    15:00 +19°C° 0 mm 2 mps 736 mmHg 32%
    16:00 +19°C° 0 mm 2 mps 736 mmHg 33%
    17:00 +18°C° 0 mm 2 mps 736 mmHg 34%
    18:00 +17°C° 0 mm 2 mps 736 mmHg 36%
    19:00 +17°C° 0 mm 2 mps 737 mmHg 37%
    20:00 +16°C° 0 mm 2 mps 737 mmHg 39%
    21:00 +15°C° 0 mm 2 mps 738 mmHg 41%
    22:00 +14°C° 0 mm 3 mps 738 mmHg 43%
    23:00 +13°C° 0 mm 3 mps 738 mmHg 44%
    Show more